• en France
  • Liste des pays
  • À 7 jours
  • Température de l'eau
  • Carte satellitaire
  • Carte météo
  • Widgets météo
  • user-avatar
    Se connecter

    Météo par heure à Dzerzhinskoe

    Ce jour, 21 Août, Mardi

    Heure Température Précipitation Vent Pression Humidité
    00:00 +21°C° 0 mm 4 m/s 761 mmHg 61%
    01:00 +21°C° 0 mm 4 m/s 761 mmHg 62%
    02:00 +21°C° 0 mm 4 m/s 761 mmHg 63%
    03:00 +20°C° 0 mm 5 m/s 761 mmHg 66%
    04:00 +21°C° 0 mm 5 m/s 761 mmHg 65%
    05:00 +21°C° 0 mm 5 m/s 761 mmHg 65%
    06:00 +21°C° 0 mm 4 m/s 761 mmHg 65%
    07:00 +23°C° 0 mm 5 m/s 761 mmHg 58%
    08:00 +26°C° 0 mm 6 m/s 760 mmHg 51%
    09:00 +29°C° 0 mm 6 m/s 760 mmHg 44%
    10:00 +30°C° 0 mm 6 m/s 760 mmHg 41%
    11:00 +32°C° 0 mm 7 m/s 760 mmHg 38%
    12:00 +33°C° 0 mm 7 m/s 760 mmHg 36%
    13:00 +33°C° 0 mm 7 m/s 759 mmHg 36%
    14:00 +33°C° 0 mm 8 m/s 759 mmHg 37%
    15:00 +33°C° 0 mm 8 m/s 759 mmHg 37%
    16:00 +30°C° 0 mm 7 m/s 759 mmHg 42%
    17:00 +29°C° 0 mm 7 m/s 759 mmHg 46%
    18:00 +28°C° 0 mm 7 m/s 759 mmHg 51%
    19:00 +27°C° 0 mm 6 m/s 759 mmHg 56%
    20:00 +26°C° 0 mm 6 m/s 759 mmHg 61%
    21:00 +23°C° 0 mm 5 m/s 759 mmHg 66%
    22:00 +23°C° 0 mm 5 m/s 759 mmHg 68%
    23:00 +23°C° 0 mm 4 m/s 759 mmHg 70%

    Demain, 22 Août, Mercredi

    Heure Température Précipitation Vent Pression Humidité
    00:00 +23°C° 0 mm 4 m/s 759 mmHg 71%
    01:00 +22°C° 0 mm 3 m/s 759 mmHg 72%
    02:00 +22°C° 0 mm 3 m/s 759 mmHg 73%
    03:00 +21°C° 0 mm 2 m/s 758 mmHg 74%
    04:00 +23°C° 0 mm 2 m/s 759 mmHg 73%
    05:00 +23°C° 0 mm 2 m/s 759 mmHg 73%
    06:00 +23°C° 0 mm 1 m/s 759 mmHg 72%
    07:00 +25°C° 0 mm 2 m/s 759 mmHg 64%
    08:00 +27°C° 0 mm 2 m/s 758 mmHg 56%
    09:00 +30°C° 0 mm 2 m/s 758 mmHg 48%
    10:00 +31°C° 0 mm 2 m/s 758 mmHg 43%
    11:00 +34°C° 0 mm 2 m/s 758 mmHg 39%
    12:00 +35°C° 0 mm 2 m/s 758 mmHg 34%
    13:00 +35°C° 0,1 mm 3 m/s 758 mmHg 33%
    14:00 +36°C° 0,1 mm 3 m/s 758 mmHg 32%
    15:00 +36°C° 0,1 mm 3 m/s 757 mmHg 31%
    16:00 +35°C° 0,1 mm 3 m/s 757 mmHg 33%
    17:00 +34°C° 0,1 mm 3 m/s 758 mmHg 35%
    18:00 +33°C° 0,1 mm 3 m/s 758 mmHg 37%
    19:00 +31°C° 0 mm 2 m/s 758 mmHg 42%
    20:00 +29°C° 0 mm 2 m/s 759 mmHg 47%
    21:00 +27°C° 0 mm 2 m/s 759 mmHg 53%
    22:00 +27°C° 0 mm 2 m/s 759 mmHg 54%
    23:00 +26°C° 0 mm 2 m/s 759 mmHg 55%

    Après-demain, 23 Août, Jeudi

    Heure Température Précipitation Vent Pression Humidité
    00:00 +26°C° 0 mm 2 m/s 759 mmHg 56%
    01:00 +25°C° 0 mm 2 m/s 759 mmHg 57%
    02:00 +25°C° 0 mm 2 m/s 759 mmHg 58%
    03:00 +25°C° 0 mm 2 m/s 759 mmHg 59%
    04:00 +25°C° 0 mm 2 m/s 759 mmHg 58%
    05:00 +25°C° 0 mm 2 m/s 760 mmHg 58%
    06:00 +25°C° 0 mm 2 m/s 760 mmHg 58%
    07:00 +27°C° 0 mm 2 m/s 760 mmHg 51%
    08:00 +29°C° 0 mm 2 m/s 760 mmHg 44%
    09:00 +32°C° 0 mm 2 m/s 760 mmHg 38%
    10:00 +34°C° 0 mm 2 m/s 760 mmHg 34%
    11:00 +35°C° 0 mm 2 m/s 760 mmHg 31%
    12:00 +36°C° 0 mm 3 m/s 760 mmHg 27%
    13:00 +36°C° 0 mm 3 m/s 760 mmHg 27%
    14:00 +36°C° 0 mm 4 m/s 760 mmHg 27%
    15:00 +37°C° 0 mm 4 m/s 760 mmHg 27%
    16:00 +35°C° 0 mm 5 m/s 760 mmHg 31%
    17:00 +33°C° 0 mm 5 m/s 760 mmHg 36%
    18:00 +32°C° 0 mm 6 m/s 760 mmHg 40%
    19:00 +29°C° 0 mm 5 m/s 760 mmHg 48%
    20:00 +27°C° 0 mm 4 m/s 761 mmHg 57%
    21:00 +25°C° 0 mm 3 m/s 761 mmHg 65%
    22:00 +25°C° 0 mm 3 m/s 761 mmHg 69%
    23:00 +25°C° 0 mm 3 m/s 761 mmHg 72%

    24 Août, Vendredi

    Heure Température Précipitation Vent Pression Humidité
    00:00 +24°C° 0 mm 3 m/s 761 mmHg 76%
    01:00 +24°C° 0 mm 3 m/s 761 mmHg 77%
    02:00 +24°C° 0 mm 3 m/s 761 mmHg 78%
    03:00 +22°C° 0 mm 3 m/s 761 mmHg 78%
    04:00 +23°C° 0 mm 4 m/s 761 mmHg 77%
    05:00 +23°C° 0 mm 4 m/s 761 mmHg 75%
    06:00 +23°C° 0 mm 4 m/s 761 mmHg 74%
    07:00 +26°C° 0 mm 4 m/s 761 mmHg 63%
    08:00 +28°C° 0 mm 5 m/s 761 mmHg 53%
    09:00 +30°C° 0 mm 6 m/s 761 mmHg 42%
    10:00 +32°C° 0 mm 6 m/s 761 mmHg 39%
    11:00 +33°C° 0 mm 7 m/s 761 mmHg 36%
    12:00 +34°C° 0 mm 7 m/s 761 mmHg 33%
    13:00 +33°C° 0 mm 8 m/s 760 mmHg 34%
    14:00 +33°C° 0 mm 8 m/s 760 mmHg 34%
    15:00 +33°C° 0 mm 8 m/s 760 mmHg 34%
    16:00 +31°C° 0 mm 8 m/s 760 mmHg 37%
    17:00 +29°C° 0 mm 7 m/s 760 mmHg 40%
    18:00 +28°C° 0 mm 7 m/s 760 mmHg 43%
    19:00 +26°C° 0 mm 6 m/s 760 mmHg 48%
    20:00 +24°C° 0 mm 6 m/s 761 mmHg 54%
    21:00 +23°C° 0 mm 5 m/s 761 mmHg 59%
    22:00 +22°C° 0 mm 5 m/s 761 mmHg 61%
    23:00 +22°C° 0 mm 5 m/s 761 mmHg 63%

    25 Août, Samedi

    Heure Température Précipitation Vent Pression Humidité
    00:00 +22°C° 0 mm 5 m/s 761 mmHg 65%
    01:00 +21°C° 0 mm 4 m/s 761 mmHg 67%
    02:00 +21°C° 0 mm 4 m/s 760 mmHg 68%
    03:00 +21°C° 0 mm 4 m/s 760 mmHg 69%
    04:00 +21°C° 0 mm 4 m/s 760 mmHg 68%
    05:00 +22°C° 0 mm 4 m/s 760 mmHg 67%
    06:00 +22°C° 0 mm 5 m/s 760 mmHg 66%
    07:00 +25°C° 0 mm 5 m/s 760 mmHg 59%
    08:00 +27°C° 0 mm 6 m/s 760 mmHg 52%
    09:00 +29°C° 0 mm 7 m/s 760 mmHg 44%
    10:00 +30°C° 0 mm 7 m/s 760 mmHg 41%
    11:00 +32°C° 0 mm 7 m/s 760 mmHg 38%
    12:00 +33°C° 0 mm 8 m/s 759 mmHg 35%
    13:00 +33°C° 0 mm 8 m/s 759 mmHg 34%
    14:00 +33°C° 0 mm 8 m/s 759 mmHg 34%
    15:00 +32°C° 0 mm 9 m/s 759 mmHg 34%
    16:00 +31°C° 0 mm 8 m/s 759 mmHg 36%
    17:00 +29°C° 0 mm 8 m/s 759 mmHg 38%
    18:00 +28°C° 0 mm 8 m/s 759 mmHg 41%
    19:00 +27°C° 0 mm 7 m/s 759 mmHg 44%
    20:00 +24°C° 0 mm 6 m/s 760 mmHg 47%
    21:00 +23°C° 0 mm 6 m/s 760 mmHg 50%
    22:00 +23°C° 0 mm 6 m/s 759 mmHg 51%
    23:00 +23°C° 0 mm 5 m/s 759 mmHg 52%

    26 Août, Dimanche

    Heure Température Précipitation Vent Pression Humidité
    00:00 +23°C° 0 mm 5 m/s 759 mmHg 53%
    01:00 +23°C° 0 mm 5 m/s 759 mmHg 53%
    02:00 +23°C° 0 mm 5 m/s 758 mmHg 54%
    03:00 +22°C° 0 mm 5 m/s 758 mmHg 54%
    04:00 +23°C° 0 mm 5 m/s 758 mmHg 53%
    05:00 +23°C° 0 mm 5 m/s 758 mmHg 53%
    06:00 +23°C° 0 mm 5 m/s 758 mmHg 53%
    07:00 +26°C° 0 mm 6 m/s 758 mmHg 45%
    08:00 +29°C° 0 mm 7 m/s 758 mmHg 38%
    09:00 +32°C° 0 mm 8 m/s 758 mmHg 30%
    10:00 +33°C° 0 mm 8 m/s 757 mmHg 29%
    11:00 +34°C° 0 mm 9 m/s 757 mmHg 28%
    12:00 +35°C° 0 mm 9 m/s 756 mmHg 26%
    13:00 +34°C° 0 mm 9 m/s 756 mmHg 27%
    14:00 +34°C° 0 mm 10 m/s 756 mmHg 28%
    15:00 +34°C° 0 mm 10 m/s 756 mmHg 29%
    16:00 +32°C° 0 mm 9 m/s 756 mmHg 33%
    17:00 +31°C° 0 mm 9 m/s 756 mmHg 36%
    18:00 +29°C° 0 mm 8 m/s 756 mmHg 40%
    19:00 +28°C° 0 mm 8 m/s 756 mmHg 44%
    20:00 +27°C° 0 mm 7 m/s 756 mmHg 49%
    21:00 +24°C° 0 mm 6 m/s 756 mmHg 53%
    22:00 +24°C° 0 mm 6 m/s 756 mmHg 54%
    23:00 +24°C° 0 mm 6 m/s 756 mmHg 56%
    Voir plus